FW6313 Weather Reports


time (UTC)temp
F
wind
direction
speed
knots
gust
knots
rain 1hr
in
rain 24hr
in
rain mn
in
humidity
%
barometer
mb
20260508105020 44 188 0.0 0.0 0.00 0.10 0.00 50 1010.9
20260508104521 44 250 0.0 0.0 0.00 0.10 0.00 50 1011.0
20260508104019 44 282 0.0 0.0 0.00 0.10 0.00 50 1011.0
20260508103519 45 282 0.0 0.0 0.00 0.10 0.00 49 1011.0
20260508103018 45 282 0.0 0.0 0.00 0.10 0.00 49 1010.9
20260508102518 45 282 0.0 0.0 0.00 0.10 0.00 48 1011.0
20260508102018 45 282 0.0 0.0 0.00 0.10 0.00 48 1010.9
20260508101519 45 282 0.0 0.0 0.00 0.10 0.00 48 1010.9
20260508101017 45 282 0.0 0.0 0.00 0.10 0.00 47 1011.0
20260508100516 45 282 0.0 0.0 0.00 0.10 0.00 47 1011.0
20260508100016 45 282 0.0 0.0 0.00 0.10 0.00 47 1011.1
20260508095516 45 282 0.0 0.0 0.00 0.10 0.00 47 1011.1
20260508095018 45 282 0.0 0.0 0.00 0.10 0.00 47 1011.1
20260508094515 45 282 0.0 0.0 0.00 0.10 0.00 46 1011.2
20260508094018 45 282 0.0 0.0 0.00 0.10 0.00 46 1011.1
20260508093516 45 282 0.0 0.0 0.00 0.10 0.00 46 1011.2
20260508093014 45 282 0.0 0.0 0.00 0.10 0.00 46 1011.2
20260508092514 45 282 0.0 0.0 0.00 0.10 0.00 46 1011.2
20260508092012 45 312 0.0 2.6 0.00 0.10 0.00 45 1011.2
20260508091527 45 312 0.0 2.6 0.00 0.10 0.00 45 1011.3
20260508091011 45 164 0.0 0.0 0.00 0.10 0.00 45 1011.3
20260508090510 45 164 0.0 0.0 0.00 0.10 0.00 45 1011.4
20260508090014 46 164 0.0 0.0 0.00 0.10 0.00 45 1011.5
20260508085509 46 164 0.0 0.0 0.00 0.10 0.00 45 1011.5
20260508085014 46 164 0.0 0.0 0.00 0.10 0.00 45 1011.5
20260508084508 46 164 0.0 0.0 0.00 0.10 0.00 45 1011.5
20260508084012 46 164 0.0 0.0 0.00 0.10 0.00 44 1011.6
20260508083509 46 164 0.0 0.0 0.00 0.10 0.00 44 1011.5
20260508083016 46 164 0.0 0.0 0.00 0.10 0.00 44 1011.5
20260508082508 46 164 0.0 0.0 0.00 0.10 0.00 44 1011.5
20260508082007 46 164 0.0 0.0 0.00 0.10 0.00 44 1011.5
20260508081509 46 164 0.0 0.0 0.00 0.10 0.00 44 1011.5
20260508081005 46 164 0.0 0.0 0.00 0.10 0.00 44 1011.7
20260508080509 46 164 0.0 0.0 0.00 0.10 0.00 44 1011.7
20260508080005 46 164 0.0 0.0 0.00 0.10 0.00 44 1011.8
20260508075508 46 164 0.0 0.0 0.00 0.10 0.00 44 1011.8
20260508075007 46 164 0.0 0.0 0.00 0.10 0.00 44 1011.9
20260508074504 46 164 0.0 0.0 0.00 0.10 0.00 44 1012.0
20260508074004 46 164 0.0 0.0 0.00 0.10 0.00 44 1011.9
20260508073503 46 164 0.0 0.0 0.00 0.10 0.00 44 1011.9
20260508073002 46 164 0.0 0.0 0.00 0.10 0.00 45 1012.0
20260508072502 46 164 0.0 0.0 0.00 0.10 0.00 44 1012.0
20260508072002 46 164 0.0 0.0 0.00 0.10 0.00 44 1012.1
20260508071503 46 164 0.0 0.0 0.00 0.10 0.00 44 1012.2
20260508071102 46 164 0.0 0.0 0.00 0.10 0.00 44 1012.3
20260508070600 46 164 0.0 0.0 0.00 0.10 0.00 44 1012.3
20260508065600 46 164 0.0 0.0 0.00 0.10 0.00 46 1012.4
20260508065059 46 164 0.0 0.0 0.00 0.10 0.00 45 1012.4
20260508064558 46 164 0.0 0.0 0.00 0.10 0.00 44 1012.5
20260508064100 46 164 0.0 0.0 0.00 0.10 0.00 45 1012.5
20260508063557 47 164 0.0 0.0 0.00 0.10 0.00 45 1012.5
20260508063140 47 164 0.0 0.0 0.00 0.10 0.00 45 1012.5
20260508062555 47 164 0.0 0.0 0.00 0.10 0.00 45 1012.5
20260508062055 47 164 0.0 0.0 0.00 0.10 0.00 46 1012.4
20260508061555 47 164 0.0 0.0 0.00 0.10 0.00 45 1012.4
20260508061054 47 164 0.0 3.5 0.00 0.10 0.00 44 1012.3
20260508060553 47 164 0.0 3.5 0.00 0.10 0.00 45 1012.2
20260508060055 47 200 0.0 0.0 0.00 0.10 0.00 46 1012.3
20260508055551 47 200 0.0 0.0 0.00 0.10 0.10 46 1012.3
20260508055051 47 200 0.0 4.3 0.00 0.10 0.10 46 1012.3
20260508054551 47 200 0.0 4.3 0.00 0.10 0.10 44 1012.2
20260508054051 47 182 0.0 2.6 0.00 0.10 0.10 44 1012.2
20260508053550 48 182 0.0 2.6 0.00 0.10 0.10 46 1012.5
20260508053058 48 258 0.0 4.3 0.00 0.10 0.10 45 1012.4
20260508052551 48 261 0.0 4.3 0.00 0.10 0.10 45 1012.5
20260508052050 48 219 0.0 1.7 0.00 0.10 0.10 45 1012.6
20260508051615 48 219 0.0 3.5 0.00 0.10 0.10 46 1012.6
20260508051050 48 219 0.0 3.5 0.00 0.10 0.10 46 1012.7
20260508050550 48 223 0.0 9.6 0.00 0.10 0.10 46 1012.7
20260508050050 48 203 0.0 5.2 0.00 0.10 0.10 46 1012.8
20260508045549 49 265 0.9 5.2 0.00 0.10 0.10 48 1012.8
20260508045053 49 228 0.0 3.5 0.00 0.10 0.10 49 1012.9
20260508044550 49 246 0.0 3.5 0.00 0.10 0.10 49 1012.9
20260508044050 49 244 0.0 3.5 0.00 0.10 0.10 49 1012.9
20260508043548 49 277 0.0 0.0 0.00 0.10 0.10 49 1012.8
20260508043048 49 277 0.0 0.9 0.00 0.10 0.10 49 1012.8
20260508042548 49 277 0.0 4.3 0.00 0.10 0.10 49 1012.8
20260508042048 49 278 0.0 7.0 0.00 0.10 0.10 50 1012.8
20260508041548 49 281 0.0 7.0 0.00 0.10 0.10 49 1012.6
20260508041048 49 13 0.0 4.3 0.00 0.10 0.10 49 1012.7
20260508040548 49 33 0.9 6.1 0.00 0.10 0.10 50 1012.7
20260508040047 49 22 4.3 6.1 0.00 0.10 0.10 50 1012.7
20260508035547 49 14 0.9 6.1 0.00 0.10 0.10 48 1012.7
20260508035047 49 309 0.0 6.1 0.00 0.10 0.10 47 1012.7
20260508034546 50 15 0.9 5.2 0.00 0.10 0.10 46 1012.6
20260508034046 50 17 0.0 0.0 0.00 0.10 0.10 50 1012.6
20260508033546 50 304 0.0 0.0 0.00 0.10 0.10 49 1012.7
20260508033050 50 304 0.0 0.0 0.00 0.10 0.10 48 1012.5
20260508032546 50 304 0.0 0.0 0.00 0.10 0.10 47 1012.3
20260508032046 50 290 0.0 0.0 0.00 0.10 0.10 47 1012.4
20260508031544 50 279 0.0 6.1 0.00 0.10 0.10 47 1012.2
20260508031045 50 282 1.7 6.1 0.00 0.10 0.10 47 1012.1
20260508030545 50 49 0.0 0.0 0.00 0.10 0.10 47 1012.1
20260508030048 50 49 0.0 0.0 0.00 0.10 0.10 48 1012.1
20260508025544 50 49 0.0 0.0 0.00 0.10 0.10 48 1012.0
20260508025044 50 49 0.0 0.0 0.00 0.10 0.10 48 1011.9
20260508024544 50 49 0.0 0.0 0.00 0.10 0.10 48 1011.9
20260508024045 50 49 0.0 3.5 0.00 0.10 0.10 48 1011.9
20260508023545 50 49 0.0 5.2 0.00 0.10 0.10 48 1011.9
20260508023043 50 49 2.6 4.3 0.00 0.10 0.10 48 1011.8
20260508022543 51 49 0.0 0.0 0.00 0.10 0.10 48 1011.7
20260508022043 51 49 0.0 7.0 0.00 0.10 0.10 48 1011.8
20260508021550 51 49 2.6 7.0 0.00 0.10 0.10 48 1011.9
20260508021043 51 49 0.9 6.1 0.00 0.10 0.10 49 1011.8
20260508020543 52 360 0.0 4.3 0.00 0.10 0.10 46 1011.8
20260508020043 52 284 0.0 4.3 0.00 0.10 0.10 46 1011.9
20260508015542 52 278 0.0 4.3 0.00 0.10 0.10 47 1011.7
20260508015042 52 278 0.0 0.0 0.00 0.10 0.10 47 1011.7
20260508014543 52 278 0.0 3.5 0.00 0.10 0.10 47 1011.6
20260508014043 52 278 0.9 3.5 0.00 0.10 0.10 46 1011.5
20260508013541 52 278 0.0 5.2 0.00 0.10 0.10 47 1011.5
20260508013042 52 278 0.9 5.2 0.00 0.10 0.10 47 1011.5
20260508012541 53 286 0.0 0.0 0.00 0.10 0.10 47 1011.5
20260508012041 53 286 0.0 0.0 0.00 0.10 0.10 48 1011.6
20260508011547 53 286 0.0 0.0 0.00 0.10 0.10 48 1011.7
20260508011039 53 286 0.0 3.5 0.00 0.10 0.10 47 1011.8
20260508010539 53 286 0.0 3.5 0.00 0.10 0.10 48 1011.8
20260508010056 53 288 0.0 0.9 0.00 0.10 0.10 48 1011.8
20260508005539 53 288 0.0 0.0 0.00 0.10 0.10 48 1011.8
20260508005040 53 288 0.0 3.5 0.00 0.10 0.10 47 1011.8
20260508004539 53 286 0.0 3.5 0.00 0.10 0.10 47 1011.8
20260508004039 53 283 0.0 0.0 0.00 0.10 0.10 47 1011.9
20260508003537 53 283 0.0 0.0 0.00 0.10 0.10 46 1011.9
20260508003037 53 283 0.0 0.0 0.00 0.10 0.10 47 1011.8
20260508002536 54 283 0.0 5.2 0.00 0.10 0.10 48 1012.0
20260508002036 54 283 0.0 5.2 0.00 0.10 0.10 47 1012.1
20260508001536 54 200 0.0 0.0 0.00 0.10 0.10 48 1012.1
20260508001035 54 200 0.0 0.0 0.00 0.10 0.10 48 1012.2
20260508000535 54 191 0.0 6.1 0.00 0.10 0.10 48 1012.4
20260508000043 55 209 0.0 10.4 0.00 0.10 0.10 48 1012.4
20260507235536 55 195 1.7 10.4 0.00 0.10 0.10 48 1012.5
20260507235034 56 204 0.9 9.6 0.00 0.10 0.10 44 1012.4
20260507234534 56 218 0.9 7.8 0.00 0.10 0.10 44 1012.3
20260507234034 57 217 0.9 6.1 0.00 0.10 0.10 45 1012.3
20260507233534 57 194 0.0 6.1 0.00 0.10 0.10 43 1012.4
20260507233038 57 271 0.9 11.3 0.00 0.10 0.10 42 1012.4
20260507232533 57 267 1.7 16.5 0.00 0.10 0.10 42 1012.5
20260507232031 57 200 1.7 16.5 0.00 0.10 0.10 41 1012.4
20260507231531 57 226 2.6 16.5 0.00 0.10 0.10 40 1012.4
20260507231031 58 203 3.5 13.0 0.00 0.10 0.10 40 1012.5
20260507230532 58 241 2.6 7.8 0.00 0.10 0.10 40 1012.5
20260507230047 58 198 0.0 7.0 0.00 0.10 0.10 45 1012.4
20260507225531 58 263 0.9 5.2 0.00 0.10 0.10 45 1012.4
20260507225029 58 204 0.0 4.3 0.00 0.10 0.10 42 1012.4
20260507224533 58 240 0.0 3.5 0.00 0.10 0.10 43 1012.5
20260507224031 58 205 0.0 4.3 0.00 0.10 0.10 44 1012.5
20260507223532 59 197 0.0 5.2 0.00 0.10 0.10 40 1012.5
20260507223101 60 211 0.9 6.1 0.00 0.10 0.10 39 1012.7
20260507222528 61 209 0.9 8.7 0.00 0.10 0.10 43 1012.7
20260507222026 61 207 0.0 3.5 0.00 0.10 0.10 42 1013.0
20260507221525 61 206 0.0 6.1 0.00 0.10 0.10 43 1013.1
20260507221126 61 203 0.0 6.1 0.00 0.10 0.10 43 1013.2
20260507220523 60 200 0.0 7.0 0.00 0.10 0.10 42 1013.3
20260507220023 61 220 0.9 7.8 0.00 0.10 0.10 43 1013.4
20260507215523 61 259 0.9 7.0 0.00 0.18 0.10 39 1013.5
20260507215023 62 208 0.9 7.0 0.00 0.18 0.10 40 1013.7
20260507214522 62 192 0.0 6.1 0.00 0.18 0.10 39 1013.7
20260507214021 62 206 0.9 9.6 0.00 0.18 0.10 42 1013.9
20260507213520 62 205 2.6 10.4 0.00 0.18 0.10 42 1014.0
20260507213018 61 217 2.6 10.4 0.00 0.18 0.10 43 1014.0
20260507212516 61 191 0.9 9.6 0.00 0.18 0.10 42 1014.0
20260507212017 61 202 2.6 9.6 0.00 0.18 0.10 41 1014.1
20260507211515 60 227 0.9 7.8 0.00 0.18 0.10 43 1014.3
20260507211014 60 213 2.6 7.8 0.00 0.18 0.10 46 1014.3
20260507210518 60 202 0.9 7.8 0.00 0.18 0.10 42 1014.5
20260507210017 61 242 1.7 7.8 0.00 0.18 0.10 42 1014.5
20260507205512 60 207 0.9 9.6 0.00 0.28 0.10 45 1014.7
20260507205012 60 197 1.7 9.6 0.00 0.28 0.10 43 1014.9
20260507204509 60 198 0.9 10.4 0.00 0.28 0.10 42 1015.0
20260507204009 60 232 2.6 10.4 0.00 0.28 0.10 42 1015.0
20260507203508 60 227 2.6 8.7 0.00 0.28 0.10 43 1015.1
20260507203017 60 234 3.5 8.7 0.00 0.28 0.10 45 1015.2
20260507202505 60 219 0.0 13.0 0.00 0.28 0.10 44 1015.4
20260507202006 59 235 2.6 13.0 0.00 0.28 0.10 46 1015.5
20260507201504 58 205 0.0 5.2 0.00 0.28 0.10 46 1015.6
20260507201006 58 202 0.9 5.2 0.00 0.28 0.10 44 1015.8
20260507200501 58 216 0.9 8.7 0.00 0.28 0.10 46 1015.9
20260507200002 59 224 0.9 8.7 0.00 0.28 0.10 45 1016.1
20260507195501 60 232 2.6 12.2 0.00 0.37 0.10 44 1016.2
20260507195100 59 203 2.6 12.2 0.00 0.37 0.10 46 1016.2
20260507194559 59 256 5.2 12.2 0.00 0.37 0.10 42 1016.4
20260507194057 59 225 2.6 11.3 0.01 0.37 0.10 42 1016.6
20260507193556 59 252 0.0 11.3 0.02 0.37 0.10 48 1016.6
20260507193055 58 208 0.9 12.2 0.03 0.37 0.10 47 1016.7
20260507192553 58 245 1.7 9.6 0.04 0.37 0.10 46 1016.9
20260507192051 56 192 0.9 8.7 0.04 0.37 0.10 52 1017.0
20260507191552 55 298 3.5 14.8 0.05 0.37 0.10 49 1017.2
20260507191049 54 239 3.5 14.8 0.06 0.37 0.10 51 1017.2
20260507190548 53 38 0.9 8.7 0.07 0.37 0.10 49 1017.5
20260507190052 53 221 0.0 5.2 0.07 0.37 0.10 52 1017.6
20260507185546 53 208 0.9 6.1 0.08 0.46 0.10 48 1017.7
20260507185046 53 346 0.9 6.1 0.08 0.46 0.10 49 1017.8
20260507184545 53 360 1.7 6.1 0.09 0.46 0.10 51 1017.9
20260507184045 53 163 0.0 4.3 0.08 0.45 0.09 47 1017.9
20260507183548 53 277 0.0 4.3 0.08 0.44 0.08 51 1017.9
20260507183042 52 208 0.0 4.3 0.07 0.43 0.07 52 1018.1
20260507182540 51 317 0.0 5.2 0.06 0.42 0.06 47 1018.3
20260507182041 52 186 0.0 2.6 0.06 0.42 0.06 46 1018.4
20260507181539 52 247 0.0 8.7 0.05 0.41 0.05 48 1018.7
20260507181038 52 265 2.6 8.7 0.04 0.40 0.04 52 1018.7
20260507180537 52 196 0.0 2.6 0.03 0.39 0.03 53 1018.7
20260507180036 51 196 0.0 3.5 0.03 0.39 0.03 52 1018.9
20260507175534 50 196 0.0 3.5 0.02 0.48 0.02 50 1018.9
20260507175033 49 277 0.0 3.5 0.02 0.48 0.02 54 1019.0
20260507174537 47 296 0.0 2.6 0.01 0.47 0.01 58 1019.3
20260507174031 45 327 0.0 0.0 0.01 0.47 0.01 59 1019.3
20260507173528 44 327 0.0 4.3 0.00 0.46 0.00 55 1019.5
20260507173027 44 327 1.7 4.3 0.00 0.46 0.00 57 1019.5
20260507172527 44 325 0.0 0.0 0.00 0.46 0.00 57 1019.7
20260507172026 43 325 0.0 0.0 0.00 0.46 0.00 58 1019.6
20260507171524 43 325 0.0 0.9 0.00 0.46 0.00 61 1019.6
20260507171022 43 325 0.0 0.0 0.00 0.46 0.00 61 1019.8
20260507170522 42 325 0.0 0.0 0.00 0.46 0.00 60 1019.8
20260507170021 41 325 0.0 0.0 0.00 0.46 0.00 59 1019.8
20260507165518 41 325 0.0 2.6 0.00 0.52 0.00 61 1019.9
20260507165018 40 325 1.7 5.2 0.00 0.52 0.00 58 1019.9
20260507164517 40 325 0.9 5.2 0.00 0.52 0.00 62 1020.0
20260507164017 40 336 0.9 5.2 0.00 0.52 0.00 61 1020.1
20260507163516 40 347 1.7 5.2 0.00 0.52 0.00 62 1020.2
20260507163015 40 21 0.0 2.6 0.00 0.52 0.00 61 1020.2
20260507162514 40 21 0.0 2.6 0.00 0.52 0.00 61 1020.2
20260507162016 40 21 0.0 3.5 0.00 0.52 0.00 61 1020.3
20260507161513 39 21 0.9 3.5 0.00 0.52 0.00 59 1020.3
20260507161011 39 21 1.7 3.5 0.00 0.52 0.00 60 1020.3
20260507160511 39 21 1.7 3.5 0.00 0.52 0.00 60 1020.4
20260507160013 39 21 0.0 4.3 0.00 0.52 0.00 61 1020.5
20260507155509 38 21 1.7 4.3 0.00 0.52 0.00 60 1020.5
20260507155011 38 21 1.7 3.5 0.00 0.52 0.00 60 1020.6
20260507154508 38 21 0.9 3.5 0.00 0.52 0.00 60 1020.7
20260507154009 38 21 0.9 2.6 0.00 0.52 0.00 61 1020.7
20260507153508 38 21 0.9 2.6 0.00 0.52 0.00 61 1020.8
20260507153006 38 21 0.0 0.0 0.00 0.52 0.00 63 1020.8
20260507152505 37 21 0.0 2.6 0.00 0.52 0.00 60 1020.8
20260507152004 36 21 0.0 4.3 0.00 0.52 0.00 60 1020.9
20260507151504 36 20 1.7 4.3 0.00 0.52 0.00 62 1021.0
20260507151002 36 5 0.9 4.3 0.00 0.52 0.00 64 1021.0
20260507150502 35 12 1.7 5.2 0.00 0.52 0.00 64 1021.0
20260507150109 34 320 0.0 5.2 0.00 0.52 0.00 64 1021.2
20260507145558 32 11 0.9 4.3 0.00 0.52 0.00 68 1021.0
20260507145102 32 26 1.7 5.2 0.00 0.52 0.00 71 1020.9
20260507144556 32 26 2.6 5.2 0.00 0.52 0.00 69 1021.0
20260507144055 32 12 2.6 5.2 0.00 0.52 0.00 68 1021.0
20260507143555 31 62 0.0 0.0 0.00 0.52 0.00 67 1020.8
20260507143058 31 62 0.0 2.6 0.00 0.52 0.00 69 1020.6
20260507142553 31 62 0.9 2.6 0.00 0.52 0.00 70 1020.7
20260507142053 31 62 0.9 2.6 0.00 0.52 0.00 73 1020.9
20260507141553 31 62 0.0 0.0 0.00 0.52 0.00 72 1020.9
20260507141053 30 62 0.0 0.0 0.00 0.52 0.00 72 1020.8
20260507140552 30 62 0.0 0.0 0.00 0.52 0.00 72 1021.0
20260507140053 30 62 0.0 0.0 0.00 0.52 0.00 72 1021.0
20260507135556 30 62 0.0 0.0 0.00 0.52 0.00 72 1021.0
20260507135055 30 62 0.0 0.0 0.00 0.52 0.00 73 1021.0
20260507134558 29 62 0.0 0.0 0.00 0.52 0.00 74 1021.0
20260507134052 29 62 0.0 0.0 0.00 0.52 0.00 71 1020.8
20260507133549 29 62 0.0 0.0 0.00 0.52 0.00 70 1021.0
20260507133051 29 62 0.0 0.0 0.00 0.52 0.00 71 1021.0
20260507132549 29 62 0.0 0.0 0.00 0.52 0.00 71 1021.0
20260507132048 29 62 0.0 1.7 0.00 0.52 0.00 72 1021.0
20260507131547 29 62 0.0 1.7 0.00 0.52 0.00 72 1021.0
20260507131047 29 62 0.0 0.0 0.00 0.52 0.00 71 1021.2
20260507130546 29 62 0.0 0.0 0.00 0.52 0.00 70 1021.0
20260507130058 29 62 0.0 0.0 0.00 0.52 0.00 69 1020.9
20260507125546 29 62 0.0 3.5 0.00 0.52 0.00 70 1020.8
20260507125047 29 62 1.7 3.5 0.00 0.52 0.00 69 1020.9
20260507124604 29 62 0.0 0.0 0.00 0.52 0.00 70 1020.9
20260507124046 29 62 0.0 0.0 0.00 0.52 0.00 72 1020.8
20260507123546 29 62 0.0 0.0 0.00 0.52 0.00 72 1020.8
20260507123102 29 62 0.0 0.0 0.00 0.52 0.00 71 1020.8
20260507122543 29 62 0.0 0.0 0.00 0.52 0.00 70 1020.8
20260507122042 29 62 0.0 0.0 0.00 0.52 0.00 70 1020.8
20260507121552 29 62 0.0 0.0 0.00 0.52 0.00 70 1020.7
20260507121042 29 62 0.0 0.0 0.00 0.52 0.00 70 1020.7
20260507120545 29 62 0.0 0.0 0.00 0.52 0.00 70 1020.8
20260507120042 29 62 0.0 0.0 0.00 0.52 0.00 70 1020.8
20260507115540 29 62 0.0 0.0 0.00 0.52 0.00 71 1020.8
20260507115040 29 62 0.0 0.0 0.00 0.52 0.00 70 1020.9
20260507114539 29 62 0.0 0.0 0.00 0.52 0.00 69 1020.8
20260507114039 29 62 0.0 0.0 0.00 0.52 0.00 70 1020.9
20260507113543 29 62 0.0 0.0 0.00 0.52 0.00 71 1020.9
20260507113038 29 62 0.0 0.0 0.00 0.52 0.00 70 1021.0
20260507112540 29 62 0.0 0.0 0.00 0.52 0.00 68 1021.1
20260507112036 29 62 0.0 0.0 0.00 0.52 0.00 67 1021.0
20260507111536 29 62 0.0 0.0 0.00 0.52 0.00 67 1021.1
20260507111036 29 62 0.0 0.0 0.00 0.52 0.00 67 1021.2
20260507110536 29 62 0.0 0.0 0.00 0.52 0.00 67 1021.1
20260507110036 29 62 0.0 0.0 0.00 0.52 0.00 67 1021.0
20260507105535 29 62 0.0 0.0 0.00 0.52 0.00 67 1021.0